Weather History for Prairie Du Chien, WI

Change the Weather History Date:

Tuesday, December 11, 2012

  Actual Average Record
Temperature  
Mean Temperature 22 °F -  
Max Temperature 30 °F 34 °F 57 °F (1949)
Min Temperature 14 °F 14 °F -17 °F (1976)
Degree Days  
Heating Degree Days 43    
Moisture  
Dew Point 18 °F    
Average Humidity 80    
Maximum Humidity 100    
Minimum Humidity 64    
Precipitation  
Precipitation 0.00 in - - ()
Sea Level Pressure  
Sea Level Pressure 29.95 in    
Wind  
Wind Speed 3 mph (SSW)    
Max Wind Speed 9 mph    
Max Gust Speed -    
Visibility 10 miles    
Events Snow    
Averages and records for this station are not official NWS values.
T = Trace of Precipitation, MM = Missing Value Source: NWS Daily Summary

Daily Weather History Graph

Daily Weather History Graph

Search for Another Location

Airport:

Trip Planner

Search our weather history database for the weather conditions in past years. The results will help you decide how hot, cold, wet, or windy it might be!

Date:

Astronomy

Dec. 11, 2012 Rise Set
Actual Time 7:26 AM CST 4:29 PM CST
Civil Twilight 6:53 AM CST 5:02 PM CST
Nautical Twilight 6:18 AM CST 5:37 PM CST
Astronomical Twilight 5:43 AM CST 6:12 PM CST
Moon 5:19 AM CST (12/11) 3:10 PM CST (12/11)
Length of Visible Light 10h 08m
Length of Day
9h 03m
Waning Crescent, 4% of the Moon is Illuminated
Dec 11
Waning Crescent
Dec 13
New
Dec 19
First Quarter
Dec 28
Full
Jan 4
Last Quarter

Hourly Weather History & Observations

Time (CST) Temp. Windchill Dew Point Humidity Pressure Visibility Wind Dir Wind Speed Gust Speed Precip Events Conditions
12:15 AM 15.8 °F 7.2 °F 14.0 °F 93% 29.96 in 10.0 mi SSW 5.8 mph - N/A   Scattered Clouds
12:35 AM 15.8 °F - 15.8 °F 100% 29.96 in 10.0 mi Calm Calm - N/A   Mostly Cloudy
12:55 AM 17.6 °F - 15.8 °F 93% 29.96 in 10.0 mi Calm Calm - N/A   Overcast
1:15 AM 17.6 °F - 15.8 °F 93% 29.95 in 10.0 mi Calm Calm - N/A   Overcast
1:35 AM 15.8 °F - 14.0 °F 93% 29.95 in 10.0 mi Calm Calm - N/A   Overcast
1:55 AM 15.8 °F - 14.0 °F 93% 29.94 in 10.0 mi Calm Calm - N/A   Mostly Cloudy
2:15 AM 15.8 °F - 14.0 °F 93% 29.93 in 10.0 mi Calm Calm - N/A   Scattered Clouds
2:35 AM 14.0 °F - 12.2 °F 93% 29.93 in 10.0 mi Calm Calm - N/A   Clear
2:55 AM 14.0 °F - 12.2 °F 93% 29.93 in 10.0 mi Calm Calm - N/A   Clear
3:15 AM 15.8 °F 8.6 °F 12.2 °F 86% 29.92 in 10.0 mi East 4.6 mph - N/A   Clear
3:35 AM 15.8 °F 8.6 °F 14.0 °F 93% 29.92 in 10.0 mi East 4.6 mph - N/A   Clear
3:55 AM 15.8 °F 6.1 °F 12.2 °F 86% 29.92 in 10.0 mi East 6.9 mph - N/A   Clear
4:15 AM 14.0 °F 3.9 °F 12.2 °F 93% 29.91 in 10.0 mi East 6.9 mph - N/A   Clear
4:35 AM 15.8 °F 7.2 °F 12.2 °F 86% 29.91 in 10.0 mi East 5.8 mph - N/A   Clear
4:55 AM 15.8 °F 6.1 °F 12.2 °F 86% 29.91 in 10.0 mi East 6.9 mph - N/A   Scattered Clouds
5:15 AM 15.8 °F 6.1 °F 12.2 °F 86% 29.91 in 10.0 mi East 6.9 mph - N/A   Mostly Cloudy
5:35 AM 15.8 °F 6.1 °F 12.2 °F 86% 29.90 in 10.0 mi East 6.9 mph - N/A   Overcast
5:55 AM 17.6 °F 9.3 °F 12.2 °F 79% 29.90 in 10.0 mi East 5.8 mph - N/A   Overcast
6:15 AM 17.6 °F 9.3 °F 12.2 °F 79% 29.90 in 10.0 mi East 5.8 mph - N/A   Overcast
6:35 AM 17.6 °F - 14.0 °F 86% 29.91 in 10.0 mi Calm Calm - N/A   Overcast
6:55 AM 19.4 °F - 14.0 °F 80% 29.91 in 10.0 mi Calm Calm - N/A   Overcast
7:15 AM 19.4 °F 14.3 °F 14.0 °F 80% 29.91 in 10.0 mi WSW 3.5 mph - N/A   Overcast
7:35 AM 21.2 °F - 12.2 °F 68% 29.91 in 10.0 mi Calm Calm - N/A   Overcast
7:55 AM 21.2 °F 16.4 °F 14.0 °F 74% 29.91 in 10.0 mi South 3.5 mph - N/A   Overcast
8:15 AM 21.2 °F 13.6 °F 14.0 °F 74% 29.91 in 10.0 mi SSW 5.8 mph - N/A   Overcast
8:35 AM 21.2 °F 14.9 °F 14.0 °F 74% 29.91 in 10.0 mi South 4.6 mph - N/A   Overcast
8:55 AM 21.2 °F 13.6 °F 14.0 °F 74% 29.92 in 10.0 mi SSW 5.8 mph - N/A   Mostly Cloudy
9:15 AM 23.0 °F 15.8 °F 14.0 °F 68% 29.93 in 10.0 mi SW 5.8 mph - N/A   Scattered Clouds
9:35 AM 23.0 °F 15.8 °F 15.8 °F 74% 29.93 in 10.0 mi WSW 5.8 mph - N/A   Mostly Cloudy
9:55 AM 23.0 °F 13.9 °F 15.8 °F 74% 29.93 in 10.0 mi SSW 8.1 mph - N/A   Mostly Cloudy
10:15 AM 24.8 °F 17.9 °F 15.8 °F 69% 29.94 in 10.0 mi WSW 5.8 mph - N/A   Scattered Clouds
10:35 AM 24.8 °F 16.9 °F 15.8 °F 69% 29.94 in 10.0 mi West 6.9 mph - N/A   Clear
10:55 AM 24.8 °F 16.1 °F 15.8 °F 69% 29.94 in 10.0 mi WSW 8.1 mph - N/A   Clear
11:15 AM 26.6 °F 18.2 °F 17.6 °F 69% 29.93 in 10.0 mi WSW 8.1 mph - N/A   Clear
11:35 AM 26.6 °F 21.2 °F 17.6 °F 69% 29.93 in 10.0 mi WSW 4.6 mph - N/A   Clear
11:55 AM 28.4 °F 20.4 °F 17.6 °F 64% 29.93 in 10.0 mi SW 8.1 mph - N/A   Clear
12:15 PM 28.4 °F 19.7 °F 17.6 °F 64% 29.93 in 10.0 mi WSW 9.2 mph - N/A   Clear
12:35 PM 28.4 °F 21.2 °F 19.4 °F 69% 29.93 in 10.0 mi WSW 6.9 mph - N/A   Mostly Cloudy
12:55 PM 28.4 °F 22.2 °F 19.4 °F 69% 29.93 in 10.0 mi SW 5.8 mph - N/A   Overcast
1:15 PM 28.4 °F 20.4 °F 19.4 °F 69% 29.93 in 10.0 mi WSW 8.1 mph - N/A   Overcast
1:35 PM 30.2 °F 23.4 °F 19.4 °F 64% 29.93 in 10.0 mi WSW 6.9 mph - N/A   Overcast
1:55 PM 30.2 °F 24.3 °F 19.4 °F 64% 29.92 in 10.0 mi WSW 5.8 mph - N/A   Overcast
2:15 PM 30.2 °F 23.4 °F 19.4 °F 64% 29.93 in 10.0 mi WSW 6.9 mph - N/A   Overcast
2:35 PM 30.2 °F 24.3 °F 19.4 °F 64% 29.93 in 10.0 mi West 5.8 mph - N/A   Overcast
2:55 PM 30.2 °F - 21.2 °F 69% 29.93 in 10.0 mi Calm Calm - N/A   Overcast
3:15 PM 30.2 °F 26.7 °F 21.2 °F 69% 29.93 in 10.0 mi South 3.5 mph - N/A   Overcast
3:35 PM 30.2 °F - 21.2 °F 69% 29.94 in 10.0 mi Calm Calm - N/A   Overcast
3:55 PM 30.2 °F - 23.0 °F 75% 29.95 in 3.0 mi Calm Calm - N/A Snow Light Snow
4:15 PM 30.2 °F - 23.0 °F 75% 29.95 in 10.0 mi Calm Calm - N/A Snow Light Snow
4:35 PM 30.2 °F - 23.0 °F 75% 29.94 in 10.0 mi Calm Calm - N/A Snow Light Snow
4:55 PM 30.2 °F - 24.8 °F 80% 29.95 in 10.0 mi Calm Calm - N/A   Overcast
5:15 PM 30.2 °F 26.7 °F 24.8 °F 80% 29.95 in 10.0 mi ESE 3.5 mph - N/A   Overcast
5:35 PM 30.2 °F - 23.0 °F 75% 29.95 in 10.0 mi Calm Calm - N/A   Overcast
5:55 PM 30.2 °F 26.7 °F 23.0 °F 75% 29.96 in 10.0 mi East 3.5 mph - N/A   Mostly Cloudy
6:15 PM 28.4 °F - 23.0 °F 80% 29.97 in 10.0 mi Calm Calm - N/A   Clear
6:35 PM 28.4 °F - 23.0 °F 80% 29.98 in 10.0 mi Calm Calm - N/A   Mostly Cloudy
6:55 PM 28.4 °F - 23.0 °F 80% 29.98 in 10.0 mi Calm Calm - N/A   Overcast
7:15 PM 30.2 °F 26.7 °F 24.8 °F 80% 29.99 in 10.0 mi NW 3.5 mph - N/A   Overcast
7:35 PM 28.4 °F - 24.8 °F 86% 30.00 in 10.0 mi Calm Calm - N/A   Overcast
7:55 PM 28.4 °F - 23.0 °F 80% 30.01 in 10.0 mi Calm Calm - N/A   Overcast
8:15 PM 28.4 °F - 23.0 °F 80% 30.01 in 10.0 mi Calm Calm - N/A   Overcast
8:35 PM 26.6 °F - 23.0 °F 86% 30.01 in 10.0 mi Calm Calm - N/A   Overcast
8:55 PM 26.6 °F - 24.8 °F 93% 30.02 in 10.0 mi Calm Calm - N/A   Overcast
9:15 PM 26.6 °F - 24.8 °F 93% 30.03 in 10.0 mi Calm Calm - N/A   Overcast
9:35 PM 26.6 °F - 24.8 °F 93% 30.04 in 10.0 mi Calm Calm - N/A   Overcast
9:55 PM 28.4 °F - 24.8 °F 86% 30.04 in 10.0 mi Calm Calm - N/A   Overcast
10:15 PM 28.4 °F - 24.8 °F 86% 30.04 in 10.0 mi Calm Calm - N/A   Overcast
10:35 PM 28.4 °F - 24.8 °F 86% 30.05 in 10.0 mi Calm Calm - N/A   Overcast
10:55 PM 28.4 °F - 24.8 °F 86% 30.05 in 10.0 mi Calm Calm - N/A   Overcast
11:15 PM 28.4 °F - 24.8 °F 86% 30.06 in 10.0 mi Calm Calm - N/A   Overcast
11:35 PM 28.4 °F 24.6 °F 24.8 °F 86% 30.06 in 10.0 mi South 3.5 mph - N/A   Overcast
11:55 PM 28.4 °F - 24.8 °F 86% 30.07 in 10.0 mi Calm Calm - N/A   Overcast